Hutchinson, KS

2:58 PM CDT on September 22, 2017 (GMT -0500)
Hutchinson Municipal

Weather History for KHUT - October, 2012

Change the Weather History Date:

Friday, October 5, 2012

  Actual Average Record
Temperature  
Mean Temperature 45 °F -  
Max Temperature 57 °F 71 °F 91 °F (2007)
Min Temperature 35 °F 46 °F 35 °F (2012)
Degree Days  
Heating Degree Days 20    
Moisture  
Dew Point 31 °F    
Average Humidity 53    
Maximum Humidity 78    
Minimum Humidity 32    
Precipitation  
Precipitation 0.00 in - - ()
Sea Level Pressure  
Sea Level Pressure 30.27 in    
Wind  
Wind Speed 8 mph (NNE)    
Max Wind Speed 20 mph    
Max Gust Speed 26 mph    
Visibility 10 miles    
Events      
Averages and records for this station are not official NWS values.
T = Trace of Precipitation, MM = Missing Value Source: NWS Daily Summary

Daily Weather History Graph

Daily Weather History Graph

Search for Another Location

Airport or City:

Trip Planner

Search our weather history database for the weather conditions in past years. The results will help you decide how hot, cold, wet, or windy it might be!

Date:

Astronomy

Oct. 05, 2012 Rise Set
Actual Time 7:31 AM CDT 7:07 PM CDT
Civil Twilight 7:04 AM CDT 7:33 PM CDT
Nautical Twilight 6:34 AM CDT 8:04 PM CDT
Astronomical Twilight 6:03 AM CDT 8:34 PM CDT
Moon 10:36 PM CDT (10/5) 12:35 PM CDT (10/5)
Length of Visible Light 12h 28m
Length of Day
11h 36m
Waning Gibbous, 74% of the Moon is Illuminated
Oct 5
Waning Gibbous
Oct 8
Last Quarter
Oct 15
New
Oct 21
First Quarter
Oct 29
Full

Hourly Weather History & Observations

Time (CDT) Temp. Windchill Dew Point Humidity Pressure Visibility Wind Dir Wind Speed Gust Speed Precip Events Conditions
12:52 AM 54.0 °F - 34.0 °F 47% 30.24 in 10.0 mi NNE 5.8 mph - N/A   Overcast
1:52 AM 53.1 °F - 33.1 °F 47% 30.24 in 10.0 mi NNE 8.1 mph - N/A   Overcast
3:52 AM 50.0 °F - 33.1 °F 52% 30.23 in 10.0 mi NNE 5.8 mph - N/A   Overcast
4:52 AM 50.0 °F - 33.1 °F 52% 30.23 in 10.0 mi NNE 6.9 mph - N/A   Overcast
5:52 AM 48.9 °F - 33.1 °F 54% 30.25 in 10.0 mi NE 8.1 mph - N/A   Overcast
6:52 AM 48.9 °F - 32.0 °F 52% 30.25 in 10.0 mi NE 9.2 mph - N/A   Overcast
7:52 AM 48.0 °F - 32.0 °F 54% 30.23 in 10.0 mi NE 5.8 mph - N/A   Overcast
8:52 AM 48.0 °F - 32.0 °F 54% 30.25 in 10.0 mi NE 8.1 mph - N/A   Overcast
10:52 AM 51.1 °F - 32.0 °F 48% 30.28 in 10.0 mi NNE 6.9 mph 17.3 mph N/A   Overcast
12:52 PM 54.0 °F - 30.9 °F 41% 30.28 in 10.0 mi NNE 12.7 mph 20.7 mph N/A   Overcast
2:52 PM 55.9 °F - 26.1 °F 32% 30.24 in 10.0 mi NE 12.7 mph 21.9 mph N/A   Mostly Cloudy
3:52 PM 55.9 °F - 30.0 °F 37% 30.23 in 10.0 mi NE 13.8 mph 20.7 mph N/A   Partly Cloudy
4:52 PM 52.0 °F - 30.9 °F 45% 30.25 in 10.0 mi North 19.6 mph 26.5 mph N/A   Clear
5:52 PM 51.1 °F - 32.0 °F 48% 30.26 in 10.0 mi NE 11.5 mph - N/A   Clear
6:52 PM 46.9 °F - 30.0 °F 52% 30.27 in 10.0 mi NNE 8.1 mph - N/A   Scattered Clouds
7:52 PM 43.0 °F 40.3 °F 28.9 °F 58% 30.30 in 10.0 mi NNE 4.6 mph - N/A   Clear
8:52 PM 41.0 °F - 28.9 °F 62% 30.31 in 10.0 mi Calm Calm - N/A   Clear
9:52 PM 35.1 °F - 28.9 °F 78% 30.34 in 10.0 mi Calm Calm - N/A   Clear
10:52 PM 37.9 °F - 30.9 °F 76% 30.34 in 10.0 mi Calm Calm - N/A   Clear
11:52 PM 42.1 °F 37.7 °F 33.1 °F 70% 30.34 in 10.0 mi North 6.9 mph - N/A   Clear